Location: Newark
(58.8333°N, 23.5833°E)
Time: 16:42:47
(UTC+00:00)

Explorer 7 - Pass Details

Date: 25 November 2019
Orbit: 485 x 680 km, 50.3° (Epoch: 06 December)

Event Time Altitude Azimuth Distance (km) Brightness Sun altitude
Rises 23:41:14 0° 260° (W) 2,935 - -48.8°
Reaches altitude 10° 23:43:54 10° 247° (WSW) 1,992 - -48.6°
Maximum altitude 23:47:38 25° 192° (SSW) 1,216 - -48.3°
Drops below altitude 10° 23:51:12 10° 137° (SE) 1,886 - -48.1°
Sets 23:53:40 0° 124° (SE) 2,745 - -47.9°
